Weather History for Liepaja, Latvia

Change the Weather History Date:

Monday, January 21, 2013

  Actual Average Record
Temperature  
Mean Temperature 15 °F -  
Max Temperature 20 °F 31 °F - ()
Min Temperature 10 °F 22 °F - ()
Degree Days  
Heating Degree Days 50    
Moisture  
Dew Point 16 °F    
Average Humidity 87    
Maximum Humidity 100    
Minimum Humidity 68    
Precipitation  
Precipitation 0.00 in 0.05 in - ()
Sea Level Pressure  
Sea Level Pressure 29.90 in    
Wind  
Wind Speed 6 mph ()    
Max Wind Speed 12 mph    
Max Gust Speed -    
Visibility 6.2 miles    
Events Snow    
T = Trace of Precipitation, MM = Missing Value Source: Averaged Metar Reports

Daily Weather History Graph

Daily Weather History Graph

Search for Another Location

Airport:

Trip Planner

Search our weather history database for the weather conditions in past years. The results will help you decide how hot, cold, wet, or windy it might be!

Date:

Astronomy

Jan. 21, 2013 Rise Set
Actual Time 8:51 AM EET 4:42 PM EET
Civil Twilight 8:07 AM EET 5:27 PM EET
Nautical Twilight 7:20 AM EET 6:14 PM EET
Astronomical Twilight 6:35 AM EET 6:59 PM EET
Moon 12:08 PM EET (1/21) 4:03 AM EET (1/21)
Length of Visible Light 9h 19m
Length of Day
7h 51m
Waxing Gibbous, 72% of the Moon is Illuminated
Jan 21
Waxing Gibbous
Jan 27
Full
Feb 3
Last Quarter
Feb 10
New
Feb 17
First Quarter

Hourly Weather History & Observations

Time (EET) Temp. Windchill Dew Point Humidity Pressure Visibility Wind Dir Wind Speed Gust Speed Precip Events Conditions
12:20 AM 21.2 °F 13.6 °F 19.4 °F 93% 29.77 in 6.2 mi NE 5.8 mph - N/A   Overcast
12:50 AM 21.2 °F 13.6 °F 19.4 °F 93% 29.80 in 6.2 mi NE 5.8 mph - N/A   Overcast
1:20 AM 21.2 °F 14.9 °F 19.4 °F 93% 29.80 in 6.2 mi NNE 4.6 mph - N/A   Overcast
1:50 AM 21.2 °F 13.6 °F 17.6 °F 86% 29.80 in 6.2 mi NE 5.8 mph - N/A   Overcast
2:00 AM 20 °F - 17 °F 80% 29.83 in 6 mi NNE 6.7 mph - -   Partly Cloudy
2:20 AM 19.4 °F 9.5 °F 17.6 °F 93% 29.80 in 6.2 mi NE 8.1 mph - N/A   Overcast
2:50 AM 19.4 °F 10.4 °F 17.6 °F 93% 29.80 in 6.2 mi NE 6.9 mph - N/A   Overcast
3:20 AM 21.2 °F 12.6 °F 17.6 °F 86% 29.80 in 6.2 mi NE 6.9 mph - N/A   Overcast
3:50 AM 21.2 °F 13.6 °F 17.6 °F 86% 29.83 in 6.2 mi NE 5.8 mph - N/A   Overcast
4:20 AM 21.2 °F 11.7 °F 17.6 °F 86% 29.83 in 6.2 mi NE 8.1 mph - N/A   Overcast
4:50 AM 21.2 °F 14.9 °F 17.6 °F 86% 29.83 in 6.2 mi NE 4.6 mph - N/A   Overcast
5:20 AM 21.2 °F 13.6 °F 17.6 °F 86% 29.83 in 6.2 mi NE 5.8 mph - N/A   Overcast
5:50 AM 21.2 °F 13.6 °F 17.6 °F 86% 29.83 in 6.2 mi NE 5.8 mph - N/A   Overcast
6:20 AM 21.2 °F 12.6 °F 17.6 °F 86% 29.83 in 6.2 mi NE 6.9 mph - N/A   Overcast
6:50 AM 21.2 °F 13.6 °F 17.6 °F 86% 29.83 in 6.2 mi NE 5.8 mph - N/A   Overcast
7:20 AM 21.2 °F 10.9 °F 17.6 °F 86% 29.83 in 6.2 mi NE 9.2 mph - N/A   Overcast
7:50 AM 21.2 °F 13.6 °F 17.6 °F 86% 29.86 in 6.2 mi NNE 5.8 mph - N/A   Overcast
8:00 AM 21 °F - 16 °F 71% 29.87 in 6 mi NNE 6.7 mph - -   Overcast
8:20 AM 21.2 °F 13.6 °F 17.6 °F 86% 29.86 in 6.2 mi NNE 5.8 mph - N/A   Overcast
8:50 AM 21.2 °F 14.9 °F 17.6 °F 86% 29.86 in 6.2 mi NE 4.6 mph - N/A   Overcast
9:20 AM 21.2 °F 13.6 °F 17.6 °F 86% 29.89 in 6.2 mi NE 5.8 mph - N/A   Overcast
9:50 AM 21.2 °F 11.7 °F 17.6 °F 86% 29.89 in 6.2 mi NE 8.1 mph - N/A   Overcast
10:20 AM 21.2 °F 13.6 °F 17.6 °F 86% 29.89 in 6.2 mi NE 5.8 mph - N/A Snow Light Snow
10:50 AM 21.2 °F 13.6 °F 17.6 °F 86% 29.92 in 6.2 mi NNE 5.8 mph - N/A   Overcast
11:20 AM 21.2 °F 11.7 °F 17.6 °F 86% 29.92 in 6.2 mi NE 8.1 mph - N/A   Overcast
11:50 AM 21.2 °F 10.9 °F 17.6 °F 86% 29.92 in 6.2 mi NE 9.2 mph - N/A   Overcast
12:20 PM 21.2 °F 10.9 °F 17.6 °F 86% 29.92 in 6.2 mi NE 9.2 mph - N/A   Overcast
12:50 PM 21.2 °F 10.9 °F 15.8 °F 80% 29.92 in 6.2 mi ENE 9.2 mph - N/A   Overcast
1:20 PM 21.2 °F 10.1 °F 15.8 °F 80% 29.92 in 6.2 mi ENE 10.4 mph - N/A   Overcast
1:50 PM 21.2 °F 10.9 °F 15.8 °F 80% 29.92 in 6.2 mi ENE 9.2 mph - N/A   Overcast
2:00 PM 20 °F - 14 °F 68% 29.95 in 8 mi NE 6.7 mph - -   Partly Cloudy
2:20 PM 21.2 °F 9.5 °F 15.8 °F 80% 29.92 in 6.2 mi ENE 11.5 mph - N/A   Overcast
2:50 PM 21.2 °F 10.1 °F 15.8 °F 80% 29.92 in 6.2 mi ENE 10.4 mph - N/A   Mostly Cloudy
3:20 PM 19.4 °F 8.6 °F 14.0 °F 80% 29.95 in - ENE 9.2 mph - N/A   Clear
3:50 PM 19.4 °F 10.4 °F 14.0 °F 80% 29.95 in - ENE 6.9 mph - N/A   Clear
4:20 PM 17.6 °F 8.2 °F 14.0 °F 86% 29.95 in - ENE 6.9 mph - N/A   Clear
4:50 PM 15.8 °F 8.6 °F 12.2 °F 86% 29.95 in - NE 4.6 mph - N/A   Clear
5:20 PM 14.0 °F - 12.2 °F 93% 29.95 in - NNE 2.3 mph - N/A   Clear
5:50 PM 12.2 °F - 10.4 °F 92% 29.95 in - East 1.2 mph - N/A   Clear
6:20 PM 12.2 °F - 10.4 °F 92% 29.95 in 6.2 mi Calm Calm - N/A   Mostly Cloudy
6:50 PM 10.4 °F - 10.4 °F 100% 29.95 in 6.2 mi Calm Calm - N/A   Overcast
7:20 PM 15.8 °F 8.6 °F 14.0 °F 93% 29.95 in 6.2 mi NNE 4.6 mph - N/A   Overcast
7:50 PM 15.8 °F - 14.0 °F 93% 29.95 in 6.2 mi NE 2.3 mph - N/A   Mostly Cloudy
8:00 PM 15 °F - 11 °F 79% 29.98 in 6 mi NNE 4.5 mph - -   Scattered Clouds
8:20 PM 14.0 °F - 12.2 °F 93% 29.95 in 6.2 mi East 2.3 mph - N/A   Scattered Clouds
8:50 PM 17.6 °F 5.7 °F 15.8 °F 93% 29.98 in 6.2 mi ENE 10.4 mph - N/A   Mostly Cloudy
9:20 PM 19.4 °F 9.5 °F 15.8 °F 86% 29.98 in 6.2 mi NE 8.1 mph - N/A   Overcast
9:50 PM 17.6 °F 7.3 °F 15.8 °F 93% 29.98 in 6.2 mi ENE 8.1 mph - N/A   Overcast
10:20 PM 19.4 °F 9.5 °F 15.8 °F 86% 30.01 in 6.2 mi NE 8.1 mph - N/A   Overcast
10:50 PM 17.6 °F 6.4 °F 15.8 °F 93% 30.01 in 6.2 mi NE 9.2 mph - N/A   Mostly Cloudy
11:20 PM 17.6 °F 8.2 °F 15.8 °F 93% 30.01 in 6.2 mi NE 6.9 mph - N/A   Mostly Cloudy
11:50 PM 17.6 °F 9.3 °F 15.8 °F 93% 30.01 in 6.2 mi NE 5.8 mph - N/A   Mostly Cloudy